NOAA NWS Hourly Roundups by Site

Regional Weather Roundup for Green Bay, WI

To Select Another Site Choose from List

Select Site:  

000
ASUS43 KGRB 291011
RWRGRB

NORTH-CENTRAL AND NORTHEAST WISCONSIN REGIONAL WEATHER ROUNDUP
NATIONAL WEATHER SERVICE GREEN BAY WI
500 AM CDT THU OCT 29 2020

WIZ005-009-010>012-018-019-291100-
NORTH CENTRAL WISCONSIN

CITY           SKY/WX    TMP DP  RH WIND       PRES   REMARKS
IRONWOOD       CLOUDY    28  26  92 N5        30.08S
MANITOWISH WTR CLOUDY    29  27  92 N9        30.03R
ARBOR VITAE    CLOUDY    32  28  85 N10       30.01R
EAGLE RIVER    CLOUDY    30  29  94 N12       30.00S
LAND O LAKES   CLOUDY    30  28  92 N8        30.02S FOG
RHINELANDER    CLOUDY    31  27  85 NE7G17    29.99R
PHILLIPS       CLOUDY    32  29  88 N8        30.01S
ANTIGO         CLOUDY    33  31  92 N8        29.97R
TOMAHAWK       CLOUDY    32  28  86 N7        30.00R
MERRILL        CLOUDY    34  32  91 N6        29.97R
$$

WIZ013-073-291100-
NORTHEAST WISCONSIN

CITY           SKY/WX    TMP DP  RH WIND       PRES   REMARKS
IRON MOUNTAIN  CLOUDY    34  28  79 N14G20    29.98S
MARINETTE      MIX PCPN  37  33  85 NE9       29.99R
OCONTO         CLOUDY    37  32  83 N7        29.98R
$$

WIZ017-030-035>037-045-291100-
CENTRAL WISCONSIN

CITY           SKY/WX    TMP DP  RH WIND       PRES   REMARKS
MEDFORD        CLOUDY    32  32  99 N7        29.98S
WAUSAU         CLOUDY    35  33  92 N5        29.97R
MOSINEE        CLOUDY    32  30  93 N3        29.99R
MARSHFIELD     MOCLDY    32  29  88 N5        29.98R
WISC RAPIDS    MOCLDY    37  31  78 N7        29.99R
STEVENS POINT  MOCLDY    33  30  89 N6        29.98S
WAUPACA        CLEAR     36  30  80 N3        29.98R
SHAWANO        CLOUDY    38  33  81 N8        29.98R
CLINTONVILLE   CLOUDY    36  30  79 N6        29.98R
WAUTOMA        PTCLDY    37  30  75 N3        29.97S
$$

WIZ038-039-048-051-291100-
FOX VALLEY

CITY           SKY/WX    TMP DP  RH WIND       PRES   REMARKS
NWS GREEN BAY  CLOUDY    38  31  76 N10       29.96R
APPLETON       CLOUDY    36  25  64 N13       29.94S
OSHKOSH        CLOUDY    40  31  70 N12       29.94F
FOND DU LAC    CLOUDY    41  33  73 N10       29.94S
$$

WIZ022-050-052-291100-
EAST CENTRAL WISCONSIN

CITY           SKY/WX    TMP DP  RH WIND       PRES   REMARKS
EPHRAIM        CLOUDY    37  34  89 NE8       29.96R
WASHINGTON ISL CLOUDY    38  32  80 N15G23    29.97R
STURGEON BAY   LGT RAIN  38  35  89 N14       29.97R
MANITOWOC      CLOUDY    40  35  83 N9        29.94R
SHEBOYGAN      CLOUDY    42  34  73 N9        29.92R
$$

LMZ563-521-522-541>543-291100-
LAKESHORE

STATION/POSITION TIME  TEMP    WIND        PRES    VSBY  WAVE
                       AIR SEA DIR/SP/G                  HT/PER
                 (UTC) (F)     (DEG/KT/KT) (MB)    (MI)  (FT/S)
SHEBOYGAN LKSHOR 1000   42     350/ 19/ 22   N/A
KEWAUNEE LKSHORE 0930   41      10/  9/ 13 1013.4F
N MID LAKE BUOY  0950   42 51   20/ 19/ 25 1014.7R         4/ 5
SISTER BAY LKSHO 0959   40      90/  9/ 14   N/A
MENOMINEE LKSHOR 0930   38 44  360/ 17/ 23 1014.6F
$$



 

View Past Reports for Green Bay, WI.

Products Courtesy of NOAA-NWS
NWS Information Parsing Script by Ken True at Saratoga Weather - Script by SE Lincoln Weather.